Torna al catalogo

NOAA 16 DEB

AttivoSSO
NORAD 41343·DEBRIS·🇺🇸 United States

Lanciato Sep 21, 2000 da Vandenberg Space Force Base

Loading…

Prossimi Passaggi (prossime 24 ore)

TLE

AggiornatoSource: Space-Track

Epoca: Sep 14, 2026, 02:18 UTC

1 41343U 00055HL  26257.09618420  .00002807  00000-0  98010-3 0  9995
2 41343  98.5903 314.3914 0018804 338.6194  21.4204 14.35952148551186

Traccia NOAA 16 DEB in tempo reale con AllMySat

Download on the App Store